Smyrna, TN

1:58 AM CDT on May 25, 2017 (GMT -0500)
Smyrna

Weather History for KMQY - December, 2013

Change the Weather History Date:

Friday, December 27, 2013

  Actual Average Record
Temperature  
Mean Temperature 36 °F -  
Max Temperature 54 °F 44 °F 75 °F (2015)
Min Temperature 19 °F 31 °F 17 °F (2010)
Degree Days  
Heating Degree Days 28    
Moisture  
Dew Point 21 °F    
Average Humidity 73    
Maximum Humidity 100    
Minimum Humidity 22    
Precipitation  
Precipitation 0.00 in - - ()
Sea Level Pressure  
Sea Level Pressure 30.47 in    
Wind  
Wind Speed 0 mph (ESE)    
Max Wind Speed 4 mph    
Max Gust Speed -    
Visibility 9 miles    
Events      
Averages and records for this station are not official NWS values.
T = Trace of Precipitation, MM = Missing Value Source: NWS Daily Summary

Daily Weather History Graph

Daily Weather History Graph

Search for Another Location

Airport or City:

Trip Planner

Search our weather history database for the weather conditions in past years. The results will help you decide how hot, cold, wet, or windy it might be!

Date:

Astronomy

Dec. 27, 2013 Rise Set
Actual Time 6:55 AM CST 4:39 PM CST
Civil Twilight 6:26 AM CST 5:07 PM CST
Nautical Twilight 5:54 AM CST 5:39 PM CST
Astronomical Twilight 5:23 AM CST 6:11 PM CST
Moon 1:32 AM CST (12/27) 12:44 PM CST (12/27)
Length of Visible Light 10h 40m
Length of Day
9h 43m
Waning Crescent, 28% of the Moon is Illuminated
Dec 27
Waning Crescent
Jan 1
New
Jan 7
First Quarter
Jan 15
Full
Jan 23
Last Quarter

Hourly Weather History & Observations

Time (CST) Temp. Windchill Dew Point Humidity Pressure Visibility Wind Dir Wind Speed Gust Speed Precip Events Conditions
12:56 AM 21.0 °F - 18.1 °F 89% 30.45 in 10.0 mi Calm Calm - N/A   Clear
1:56 AM 23.0 °F - 21.0 °F 92% 30.47 in 10.0 mi Calm Calm - N/A   Clear
2:56 AM 22.1 °F - 21.0 °F 96% 30.48 in 10.0 mi Calm Calm - N/A   Clear
3:56 AM 22.1 °F - 20.1 °F 92% 30.47 in 10.0 mi Calm Calm - N/A   Clear
4:22 AM 21.2 °F - 19.4 °F 93% 30.43 in 6.0 mi Calm Calm - N/A   Partly Cloudy
4:34 AM 21.2 °F 16.4 °F 19.4 °F 93% 30.43 in 7.0 mi SSE 3.5 mph - N/A   Mostly Cloudy
4:56 AM 21.0 °F - 20.1 °F 96% 30.48 in 6.0 mi Calm Calm - N/A   Partly Cloudy
5:56 AM 21.0 °F - 19.0 °F 92% 30.50 in 2.5 mi Calm Calm - N/A   Clear
6:10 AM 19.4 °F - 19.4 °F 100% 30.45 in 10.0 mi Calm Calm - N/A   Clear
6:56 AM 22.1 °F - 21.0 °F 96% 30.51 in 10.0 mi Calm Calm - N/A   Clear
7:56 AM 24.1 °F - 22.1 °F 92% 30.53 in 10.0 mi Calm Calm - N/A   Clear
8:56 AM 32.0 °F - 28.0 °F 85% 30.54 in 10.0 mi Calm Calm - N/A   Clear
9:56 AM 37.9 °F - 27.1 °F 65% 30.54 in 10.0 mi Calm Calm - N/A   Clear
10:56 AM 45.0 °F 43.5 °F 27.1 °F 50% 30.53 in 7.0 mi Variable 3.5 mph - N/A   Clear
11:56 AM 48.9 °F - 23.0 °F 36% 30.50 in 10.0 mi ESE 3.5 mph - N/A   Clear
12:56 PM 50.9 °F - 13.1 °F 22% 30.47 in 10.0 mi North 3.5 mph - N/A   Clear
1:56 PM 50.9 °F - 16.2 °F 25% 30.45 in 10.0 mi Calm Calm - N/A   Clear
2:56 PM 54.0 °F - 16.2 °F 23% 30.44 in 10.0 mi Calm Calm - N/A   Clear
3:56 PM 52.9 °F - 18.1 °F 26% 30.43 in 10.0 mi Calm Calm - N/A   Clear
4:56 PM 38.8 °F - 22.1 °F 51% 30.44 in 10.0 mi Calm Calm - N/A   Clear
5:56 PM 36.0 °F - 23.0 °F 59% 30.44 in 10.0 mi Calm Calm - N/A   Clear
6:56 PM 31.1 °F - 23.0 °F 72% 30.46 in 10.0 mi Calm Calm - N/A   Clear
7:56 PM 31.1 °F - 23.0 °F 72% 30.47 in 10.0 mi Calm Calm - N/A   Clear
8:56 PM 29.1 °F - 25.2 °F 85% 30.46 in 10.0 mi Calm Calm - N/A   Clear
9:56 PM 27.1 °F - 23.0 °F 84% 30.46 in 10.0 mi Calm Calm - N/A   Clear
10:56 PM 28.0 °F - 24.1 °F 85% 30.45 in 10.0 mi Calm Calm - N/A   Clear
11:56 PM 27.1 °F - 25.2 °F 92% 30.42 in 10.0 mi Calm Calm - N/A   Clear